Faith, SD

9:00 PM MDT on April 27, 2017 (GMT -0600)
Faith

Weather History for KD07 - February, 2014

Change the Weather History Date:

Tuesday, February 11, 2014

  Actual Average Record
Temperature  
Mean Temperature 19 °F 22 °F  
Max Temperature 37 °F 32 °F 55 °F (2005)
Min Temperature 1 °F 13 °F -8 °F (2001)
Degree Days  
Heating Degree Days 46 42  
Month to date heating degree days 695 477  
Since 1 July heating degree days 5389 5006  
Cooling Degree Days 0 0  
Month to date cooling degree days 0 0  
Year to date cooling degree days 0 0  
Moisture  
Dew Point 13 °F    
Average Humidity 72    
Maximum Humidity 91    
Minimum Humidity 52    
Precipitation  
Precipitation 0.02 in 0.01 in 0.29 in (2008)
Month to date precipitation 0.18 0.19  
Year to date precipitation 0.38 0.39  
Sea Level Pressure  
Sea Level Pressure 30.03 in    
Wind  
Wind Speed 15 mph (SSW)    
Max Wind Speed 32 mph    
Max Gust Speed 38 mph    
T = Trace of Precipitation, MM = Missing Value Source: NWS Daily Summary

Daily Weather History Graph

Daily Weather History Graph

Search for Another Location

Airport or City:

Trip Planner

Search our weather history database for the weather conditions in past years. The results will help you decide how hot, cold, wet, or windy it might be!

Date:

Astronomy

Feb. 11, 2014 Rise Set
Actual Time 6:54 AM MST 5:10 PM MST
Civil Twilight 6:24 AM MST 5:40 PM MST
Nautical Twilight 5:49 AM MST 6:15 PM MST
Astronomical Twilight 5:15 AM MST 6:49 PM MST
Moon 2:29 PM MST (2/11) 4:37 AM MST (2/11)
Length of Visible Light 11h 16m
Length of Day
10h 15m
Waxing Gibbous, 91% of the Moon is Illuminated
Feb 11
Waxing Gibbous
Feb 14
Full
Feb 22
Last Quarter
Mar 1
New
Mar 8
First Quarter

Hourly Weather History & Observations

Time (MST) Temp. Windchill Dew Point Humidity Pressure Visibility Wind Dir Wind Speed Gust Speed Precip Events Conditions
12:56 AM 1.0 °F -19.3 °F -2.0 °F 87% 30.22 in - South 17.3 mph - N/A   Unknown
1:56 AM 1.0 °F -20.4 °F -2.9 °F 83% 30.19 in - South 19.6 mph - N/A   Unknown
2:56 AM 1.0 °F -20.4 °F -4.0 °F 79% 30.17 in - South 19.6 mph - N/A   Unknown
3:56 AM 1.0 °F -20.9 °F -4.0 °F 79% 30.13 in - South 20.7 mph - N/A   Unknown
4:56 AM 3.0 °F -18.3 °F -2.0 °F 80% 30.11 in - South 20.7 mph - N/A   Unknown
5:56 AM 6.1 °F -13.8 °F 1.0 °F 80% 30.07 in - South 19.6 mph - N/A   Unknown
6:56 AM 8.1 °F -10.2 °F 3.0 °F 80% 30.04 in - South 17.3 mph - N/A   Unknown
7:56 AM 10.9 °F -7.5 °F 7.0 °F 84% 30.01 in - South 19.6 mph - N/A   Unknown
8:56 AM 12.9 °F -3.4 °F 8.1 °F 81% 30.01 in - South 16.1 mph - N/A   Unknown
9:56 AM 15.1 °F 0.5 °F 10.0 °F 80% 29.99 in - SSW 13.8 mph - N/A   Unknown
10:56 AM 21.9 °F 10.4 °F 16.0 °F 78% 29.96 in - SW 11.5 mph - N/A   Unknown
11:56 AM 27.0 °F 16.7 °F 19.9 °F 75% 29.94 in - WSW 11.5 mph - N/A   Unknown
12:56 PM 37.0 °F 29.3 °F 21.9 °F 54% 29.90 in - West 11.5 mph - N/A   Unknown
1:56 PM 35.1 °F 29.3 °F 25.0 °F 67% 29.88 in - SSW 6.9 mph - N/A   Unknown
2:56 PM 36.0 °F 32.1 °F 26.1 °F 67% 29.87 in - SSW 4.6 mph - N/A   Unknown
3:56 PM 32.0 °F 24.8 °F 25.0 °F 75% 29.89 in - SSW 8.1 mph - N/A   Unknown
4:56 PM 30.9 °F 25.2 °F 24.1 °F 76% 29.90 in - South 5.8 mph - N/A   Unknown
5:56 PM 30.9 °F - 24.1 °F 76% 29.90 in - North - - N/A   Unknown
6:56 PM 33.1 °F 25.5 °F 28.0 °F 82% 29.95 in - WNW 9.2 mph 17.3 mph N/A   Unknown
7:56 PM 32.0 °F - 28.0 °F 85% 29.98 in - North - - 0.01 in   Unknown
8:56 PM 24.1 °F 8.3 °F 21.9 °F 91% 30.09 in - North 24.2 mph - 0.01 in   Unknown
9:56 PM 19.9 °F 4.3 °F 18.0 °F 92% 30.13 in - North 19.6 mph - N/A   Unknown
10:56 PM 17.1 °F 3.6 °F 14.0 °F 88% 30.15 in - North 12.7 mph - N/A   Unknown
11:56 PM 16.0 °F 6.3 °F 12.0 °F 84% 30.20 in - North 6.9 mph - N/A   Unknown